RH
54 57 57 58 63 65 66 67 68 66 69 68 66 63 61 49 43 40 37 32 25 18 15 17 23 26 29 36 100 99 98 99 70 100 99 100 92 92 94 96 100 100 52
61 65 65 66 69 69 70 72 77 76 77 78 78 75 74 66 52 44 40 36 29 22 16 15 19 24 28 30 54 96 98 98 99 100 95 99 97 99 100 100 100 100 48
68 68 69 73 74 74 77 79 81 84 89 89 88 84 83 80 67 52 43 38 31 24 20 15 15 20 24 28 30 48 98 99 98 99 100 100 100 98 99 99 100 98 63
67 72 75 77 79 80 81 83 89 93 95 95 96 91 87 87 78 61 48 40 34 28 22 17 13 17 20 23 26 30 46 91 99 97 99 99 100 100 98 100 100 97 76
67 75 79 81 84 86 87 90 91 94 97 98 96 98 97 92 85 73 55 42 36 29 23 19 14 13 18 19 21 26 28 38 87 97 98 99 99 100 100 100 100 99 99
66 78 83 86 86 88 92 95 97 96 100 100 100 100 98 96 91 79 61 42 38 31 24 20 16 12 14 18 18 20 24 25 41 92 98 99 99 99 99 100 100 100 99
71 84 90 90 88 94 96 97 100 98 100 100 100 100 100 99 96 76 64 47 35 32 27 22 19 13 12 14 15 16 22 23 23 38 87 99 98 99 100 99 100 100 99
81 89 95 92 92 99 100 100 100 99 99 100 100 100 100 100 89 71 63 48 36 31 28 24 21 17 14 14 12 12 24 27 20 20 50 84 97 99 99 99 100 100 99
85 93 96 93 95 99 98 100 99 96 93 100 100 100 100 100 96 77 63 49 41 36 33 29 24 19 17 14 12 19 31 33 27 19 20 43 97 92 99 99 99 99 100
90 92 95 97 100 100 99 98 98 99 97 100 99 100 100 100 100 100 100 89 76 62 47 35 29 24 23 20 15 16 22 32 38 32 20 20 63 93 99 98 99 98 99
96 96 95 99 100 100 98 100 98 99 100 100 100 100 100 100 100 100 100 99 94 95 95 93 88 70 47 42 36 26 19 29 39 41 30 19 26 62 92 99 99 97 99
95 95 96 99 99 100 96 100 100 100 99 99 99 99 99 99 99 99 99 98 100 100 87 78 79 81 77 72 70 62 58 56 51 45 41 25 15 23 51 97 98 100 99
92 98 96 94 100 100 98 96 99 98 98 98 98 99 98 99 99 99 99 99 98 94 92 92 87 80 82 80 76 79 83 74 62 53 42 36 20 13 26 62 98 98 99
93 99 95 86 88 99 100 99 96 96 91 95 97 97 98 98 98 97 98 98 98 98 98 97 95 96 95 86 85 86 87 86 79 63 47 43 38 27 15 16 36 95 99
97 99 98 90 77 76 94 90 92 100 98 95 96 95 94 94 95 97 95 96 95 96 96 96 97 97 97 98 94 85 78 75 74 70 62 51 45 37 24 14 15 42 96
98 96 96 96 95 78 70 75 99 94 94 99 100 99 99 99 99 99 99 98 97 96 95 95 95 95 95 96 96 98 99 91 81 74 67 61 53 42 32 23 17 18 64
100 94 97 98 94 89 89 85 68 73 79 78 81 95 99 98 98 98 98 98 97 99 99 97 97 97 97 97 96 93 91 97 99 94 88 71 57 50 41 31 22 16 19
97 100 100 95 91 93 91 94 90 82 72 66 55 54 66 86 90 95 97 98 100 99 98 98 98 98 98 98 97 91 89 88 91 89 83 78 74 61 47 37 27 21 13
87 90 98 97 95 95 97 98 92 89 73 59 50 48 45 51 72 88 91 95 98 98 98 98 98 98 98 98 97 97 95 93 93 95 96 90 78 66 52 41 35 27 22
78 88 85 94 95 97 96 94 93 92 72 53 47 43 38 36 39 59 81 86 91 97 98 98 98 98 98 98 98 96 95 95 95 95 96 95 89 76 52 44 37 33 26
75 70 82 85 97 96 97 93 99 97 87 65 59 56 54 48 40 40 60 82 84 85 94 97 98 98 98 97 97 98 97 96 96 96 98 92 86 78 61 47 42 37 28
82 72 65 79 88 97 96 97 100 100 99 82 66 63 58 54 49 42 43 69 86 87 87 93 97 98 97 95 96 96 95 96 96 96 98 93 80 78 68 51 44 44 36
85 78 68 64 80 96 99 100 100 100 100 98 84 62 56 51 52 46 43 50 80 89 90 91 95 98 98 98 99 96 94 91 92 96 94 96 87 75 74 57 50 45 41
80 78 72 62 67 89 97 98 100 100 100 100 89 64 61 57 56 52 46 46 67 88 92 90 90 97 97 97 97 97 97 96 94 96 99 98 97 87 79 63 61 48 45
71 74 72 65 59 81 98 100 100 100 100 100 92 64 63 58 59 61 49 48 55 79 89 92 88 87 96 98 98 96 97 97 94 95 96 98 97 97 90 81 74 69 63
63 65 69 66 60 71 96 97 98 100 100 100 98 63 60 57 66 64 56 50 49 64 83 88 89 88 93 98 97 97 97 95 93 93 96 95 96 97 95 99 98 99 91
Wind_Speed
35 34 33 31 32 34 35 35 36 37 36 36 36 36 35 34 34 35 34 34 37 39 41 42 44 46 47 53 65 70 50 51 73 61 48 47 51 52 51 55 58 58 51
34 34 32 32 33 33 33 34 35 37 36 36 34 34 33 32 32 32 32 32 35 38 39 42 42 44 45 45 61 66 64 48 48 60 68 56 56 50 48 51 59 58 51
34 33 32 32 33 32 32 33 34 35 32 31 32 33 32 30 30 29 30 30 33 36 37 41 42 44 44 45 46 55 77 57 63 64 47 39 51 48 45 47 58 56 52
32 32 32 32 33 32 32 33 34 32 31 30 30 31 30 29 28 27 26 28 30 32 37 38 41 43 43 43 43 47 54 69 57 60 52 36 41 49 54 56 56 58 57
31 31 31 32 32 31 32 31 30 27 26 27 29 27 27 27 26 25 24 25 28 30 35 37 39 42 43 42 43 42 45 56 71 63 56 47 29 42 45 41 57 63 56
30 30 30 31 31 30 30 29 27 26 26 27 27 27 24 23 22 22 23 24 26 28 32 36 36 41 42 42 42 43 42 46 58 68 59 50 55 48 42 43 50 61 56
29 28 29 29 29 30 30 29 26 23 24 24 24 23 21 18 19 19 19 23 23 25 28 33 34 38 40 41 41 41 43 44 45 56 68 60 53 52 52 42 45 65 69
28 27 27 28 28 30 31 28 23 21 20 24 22 19 17 14 15 14 15 20 22 21 24 27 31 34 38 39 40 41 41 42 48 50 66 63 60 56 56 51 46 46 58
27 26 25 26 27 29 30 26 21 18 18 20 20 19 17 12 13 11 12 15 16 17 19 23 27 31 33 37 40 42 40 40 44 50 52 63 61 67 57 58 50 43 50
26 25 24 24 26 28 27 26 22 19 19 20 20 18 17 14 12 11 10 10 10 12 15 18 22 26 29 33 38 41 42 39 39 45 52 56 68 74 59 57 57 51 50
25 24 23 23 24 26 25 25 23 20 18 16 16 16 14 13 12 11 11 14 14 13 14 16 19 23 27 29 34 38 41 40 39 41 47 53 60 74 71 59 60 60 58
24 23 22 22 22 23 22 22 21 20 19 16 18 16 12 10 10 11 12 14 17 21 20 17 17 20 25 29 32 35 38 39 41 41 44 50 58 65 71 65 52 55 63
22 22 22 21 21 21 21 20 19 19 19 19 20 19 17 14 12 10 9 10 14 16 17 17 18 19 23 28 31 33 33 37 40 42 42 45 51 60 69 75 70 56 55
22 22 22 22 20 19 18 19 20 19 20 20 21 20 20 18 16 15 13 12 11 10 13 14 14 15 19 23 27 29 32 35 38 41 41 41 45 50 59 62 69 75 61
22 22 21 21 21 18 19 21 19 19 20 21 21 21 21 20 19 18 18 17 16 14 12 11 10 11 13 16 19 24 29 32 36 38 39 39 43 47 52 59 68 71 70
22 21 22 21 21 20 18 15 19 20 17 16 17 19 18 18 19 17 16 17 17 17 15 14 15 15 15 16 16 16 19 24 29 34 37 39 40 44 48 54 61 65 77
23 21 21 21 21 21 21 22 19 14 19 19 18 17 17 18 18 16 15 16 17 16 15 14 14 15 17 20 21 22 22 21 22 27 31 35 39 42 46 52 57 62 72
21 22 22 21 21 21 22 23 23 23 20 17 17 17 18 18 17 16 15 15 14 13 13 12 13 12 14 16 20 24 25 26 27 29 33 37 40 42 46 50 55 58 64
20 21 21 21 21 22 22 22 22 23 23 23 20 17 16 16 17 18 18 17 15 14 13 13 14 14 13 13 15 19 23 25 26 27 30 36 41 46 47 50 54 56 57
20 21 22 22 21 20 21 22 23 24 25 25 24 23 21 17 15 15 15 15 15 15 14 14 15 16 16 15 15 17 22 25 28 28 29 30 38 46 49 50 53 56 59
19 20 21 22 22 21 21 22 24 25 26 26 26 26 24 23 20 19 18 16 15 15 15 15 16 17 18 18 19 20 21 23 25 25 29 31 32 43 49 49 52 56 58
17 19 20 21 22 21 21 23 24 24 25 26 26 25 24 22 20 18 17 17 16 16 16 17 17 19 20 21 24 24 23 23 24 27 30 32 31 38 48 49 51 52 59
16 17 19 20 21 21 20 21 23 24 25 26 27 26 25 23 21 18 16 17 16 16 15 16 17 18 19 22 24 26 26 25 25 27 32 32 31 36 43 49 49 50 56
15 16 17 18 20 21 21 21 22 23 24 26 27 27 27 26 22 18 16 16 16 16 17 16 17 19 20 22 24 26 27 28 27 28 32 25 24 31 36 43 48 50 54
14 15 16 17 18 19 19 19 21 22 24 27 28 28 28 26 23 20 16 15 17 16 17 17 17 18 20 22 23 26 29 28 26 27 28 14 16 24 25 32 41 50 48
14 14 14 15 16 17 18 18 20 22 24 27 29 28 28 28 24 21 17 15 16 17 17 17 17 18 20 21 23 26 28 30 28 28 26 7 13 20 23 25 31 36 44
Wind_Direction
313 313 312 309 307 307 307 306 304 303 301 297 294 290 285 277 269 264 259 252 245 240 237 235 236 235 234 229 225 231 224 220 232 220 220 217 229 233 233 229 229 230 230
318 316 315 314 313 312 309 308 306 303 299 296 293 289 286 279 271 264 259 253 247 239 237 235 235 237 237 235 231 229 234 230 229 223 226 232 231 231 230 229 229 231 220
319 318 319 319 317 315 313 312 310 307 301 298 295 289 287 283 274 265 259 253 247 241 238 235 234 237 238 238 237 236 226 227 228 231 201 201 209 216 226 228 231 228 216
321 321 321 321 321 319 315 314 314 307 303 299 298 293 286 283 276 268 260 255 249 242 237 236 234 236 238 240 240 238 236 236 226 224 221 209 196 211 219 228 223 223 211
323 325 324 324 325 321 318 316 316 314 310 308 306 298 288 284 280 272 261 254 248 242 237 237 234 235 238 240 242 240 240 239 235 222 228 220 191 209 217 227 225 218 220
326 327 326 326 325 325 324 320 317 317 319 316 313 306 292 286 279 270 264 254 248 242 237 235 237 235 237 240 242 244 243 240 236 235 230 226 232 220 219 218 220 224 220
327 329 327 326 331 333 331 327 323 319 324 325 318 309 301 291 280 272 264 259 250 243 240 234 237 236 238 240 242 244 244 244 239 240 235 224 219 215 221 214 216 220 220
330 330 327 329 336 338 336 331 326 323 330 336 332 322 317 306 290 281 267 260 255 245 242 240 239 237 239 243 245 243 244 246 244 240 241 224 226 226 217 212 206 219 223
331 328 330 331 338 339 340 338 331 326 327 333 335 334 336 331 313 301 278 270 267 261 250 242 240 237 238 245 246 245 247 246 244 244 243 240 230 224 227 223 220 223 221
331 333 332 335 336 338 341 348 343 333 325 323 321 324 328 333 330 323 306 288 276 264 253 246 245 243 241 243 248 251 252 251 251 245 240 238 234 226 225 221 220 224 224
336 334 334 334 334 336 341 348 349 345 339 327 336 334 322 315 312 307 305 301 297 280 267 256 250 250 249 246 248 251 253 255 253 251 244 238 236 232 229 217 223 224 227
336 338 336 336 333 335 340 345 349 351 354 353 359 360 353 335 320 307 292 285 286 287 289 275 261 254 253 252 251 250 253 256 256 251 247 240 235 236 235 220 214 215 223
341 342 343 340 337 334 338 342 342 346 352 358 0 1 3 360 353 343 325 306 290 285 288 287 277 255 246 246 244 245 247 250 253 251 246 243 238 235 234 231 225 220 208
345 347 346 346 342 339 338 341 341 342 346 349 349 350 354 354 353 353 350 339 327 311 292 286 279 265 249 247 244 241 244 248 250 251 247 243 239 237 234 236 237 238 216
348 346 350 348 351 347 349 343 345 342 341 339 340 340 339 341 343 342 339 338 333 326 316 306 291 279 265 256 250 250 249 251 254 254 251 245 240 238 234 234 234 238 228
351 348 351 354 354 353 357 5 347 343 340 335 333 331 331 330 329 328 332 334 332 329 324 311 294 283 276 268 267 263 258 253 253 254 255 251 243 239 237 232 234 234 235
350 350 354 351 351 356 358 358 359 3 347 343 339 332 330 330 329 326 331 332 331 329 323 321 313 297 278 271 269 267 265 262 256 256 257 255 250 239 236 235 233 233 233
349 352 353 351 353 356 357 358 355 355 356 356 347 340 339 331 328 330 335 332 322 318 329 334 334 320 301 284 272 267 267 266 268 270 266 256 248 244 235 233 232 232 232
349 355 355 357 356 357 358 355 357 357 355 353 351 346 340 335 339 339 334 331 332 332 333 337 339 339 328 310 290 276 271 269 269 274 272 261 250 242 239 232 230 230 229
350 352 354 356 358 357 359 356 360 357 356 354 351 350 347 344 340 339 335 335 337 336 335 334 336 338 338 329 316 298 282 278 278 282 286 273 253 242 238 233 227 226 226
348 348 353 356 355 356 358 359 1 357 355 355 354 353 350 347 345 340 340 341 340 339 339 338 337 337 337 336 332 318 303 292 286 288 299 288 262 241 236 231 226 223 221
340 345 349 353 357 355 355 359 358 358 356 354 355 354 351 348 345 342 340 341 343 343 344 343 340 337 337 340 336 328 321 311 299 292 303 297 268 244 232 229 224 221 218
327 338 346 350 353 355 354 354 355 356 358 358 356 354 355 354 350 345 342 343 343 347 347 345 342 338 338 342 338 338 332 324 314 307 310 301 268 241 231 225 219 217 213
315 329 341 347 351 354 355 355 357 358 360 360 359 358 358 357 352 352 345 344 348 346 348 350 347 343 344 343 343 346 342 336 326 317 318 299 256 230 223 218 214 211 211
312 321 331 341 348 353 358 357 358 2 3 3 3 3 1 359 359 357 350 349 351 349 350 352 351 349 350 346 348 353 349 345 338 332 335 300 230 210 211 214 213 209 211
320 316 323 335 345 351 357 359 3 7 8 8 7 5 6 7 4 1 2 357 355 356 353 354 357 358 355 351 356 359 356 357 357 354 354 324 193 190 193 195 203 209 199